DateTimeUTC,F1_A11,F1_S11,BsB_S11,BsG_S11,BsR_S11,BbsB_S11,BbsG_S11,BbsR_S11,BaB_A11,BaG_A11,BaR_A11,Tu_S11,T_S11,Uu_S11,U_S11,P_S11,T1_A11
2021-08-12T23:00:00Z,00040200,20000000,,,,,,,-000.09,0000.13,0000.39,18.3,25.0,07.6,05.0,0676.6,31.0
2021-08-12T23:01:00Z,00040200,20000000,,,,,,,-000.15,-000.17,-000.27,18.3,25.1,07.6,05.0,0676.6,31.0
2021-08-12T23:02:00Z,00040200,20000000,,,,,,,0000.71,0000.11,0000.11,18.3,25.1,07.5,05.0,0676.6,31.0
2021-08-12T23:03:00Z,00040200,60000000,,,,,,,0000.01,0000.64,0000.50,18.4,25.1,07.5,05.0,0676.6,31.0
2021-08-12T23:04:00Z,00040200,40000000,0003.30,0002.46,0001.57,0000.43,0000.26,0000.34,0000.45,0000.56,0000.28,18.6,25.0,07.5,05.1,0677.5,31.0
2021-08-12T23:05:00Z,00040200,00000000,0003.16,0002.06,0001.83,0000.90,0000.53,0000.37,0000.66,-000.01,0000.24,18.6,24.9,07.4,05.1,0677.5,31.0
2021-08-12T23:06:00Z,00040200,00000000,0003.63,0002.14,0001.64,0000.34,0000.17,0000.17,0000.45,0000.60,0000.70,18.6,24.9,07.5,05.1,0677.5,31.0
2021-08-12T23:07:00Z,00040200,00000000,0003.06,0001.92,0001.40,-000.24,0000.20,0000.24,0000.54,0000.82,0000.05,18.6,24.9,07.6,05.2,0677.5,31.0
2021-08-12T23:08:00Z,00040200,00000000,0002.82,0002.02,0001.66,0000.61,0000.58,0000.35,0000.35,0000.26,0000.59,18.6,24.8,07.5,05.1,0677.6,31.0
2021-08-12T23:09:00Z,00040200,00000000,0002.78,0002.47,0001.60,0000.91,0000.54,0000.38,0000.73,0000.08,0000.52,18.5,24.8,07.6,05.2,0677.6,31.0
2021-08-12T23:10:00Z,00040200,00000000,0003.42,0002.28,0001.60,0000.79,0000.68,0000.45,0000.04,0000.58,0000.10,18.5,24.8,07.6,05.2,0677.6,31.0
2021-08-12T23:11:00Z,00040200,00000000,0003.30,0002.43,0001.87,0000.27,0000.23,0000.38,0000.81,0000.33,0000.67,18.5,24.8,07.7,05.2,0677.6,31.0
2021-08-12T23:12:00Z,00040200,00000000,0003.54,0002.22,0001.56,0000.55,0000.23,0000.38,0000.27,0000.75,-000.08,18.4,24.7,07.7,05.2,0677.6,31.0
2021-08-12T23:13:00Z,00040200,00000000,0003.50,0002.88,0001.86,0001.07,0000.14,0000.30,0000.93,0000.81,0000.66,18.5,24.8,07.6,05.2,0677.5,31.0
2021-08-12T23:14:00Z,00040200,00000000,0004.08,0002.66,0001.71,0000.29,0000.39,0000.07,0000.50,0000.48,0000.68,18.6,24.8,07.7,05.2,0677.5,31.0
2021-08-12T23:15:00Z,00040200,00000000,0004.14,0003.07,0001.81,0000.66,0000.40,0000.36,0000.90,0000.50,0000.33,18.6,24.8,07.6,05.2,0677.5,31.0
2021-08-12T23:16:00Z,00040200,00000000,0004.23,0003.54,0002.03,0000.80,0000.48,0000.26,0000.82,0001.01,0000.69,18.7,24.9,07.6,05.2,0677.5,31.0
2021-08-12T23:17:00Z,00040200,00000000,0004.46,0003.45,0002.49,0000.94,0000.41,0000.38,0000.35,0000.39,0000.37,18.7,24.9,07.5,05.2,0677.5,31.0
2021-08-12T23:18:00Z,00040200,00000000,0005.14,0003.91,0002.67,0000.57,0000.42,0000.61,0000.80,0000.57,0000.69,18.7,24.9,07.6,05.2,0677.5,31.0
2021-08-12T23:19:00Z,00040200,00000000,0006.13,0004.14,0002.85,0000.54,0000.48,0000.33,0001.08,0001.09,0000.31,18.7,24.9,07.5,05.2,0677.5,31.0
2021-08-12T23:20:00Z,00040200,00000000,0005.82,0003.96,0002.52,0000.96,0000.61,0000.28,0001.04,0000.66,0000.67,18.7,24.9,07.5,05.1,0677.5,31.0
2021-08-12T23:21:00Z,00040200,00000000,0006.44,0003.92,0002.96,0000.95,0000.16,0000.77,0000.23,0000.57,0000.98,18.6,24.8,07.5,05.1,0677.6,31.0
2021-08-12T23:22:00Z,00040200,00000000,0005.38,0004.14,0002.74,0000.62,0000.83,0000.43,0000.85,0000.77,0000.15,18.6,24.8,07.4,05.1,0677.5,31.0
2021-08-12T23:23:00Z,00040200,00000000,0004.86,0003.97,0003.14,0000.34,0000.76,0000.77,0001.13,0001.24,0000.81,18.6,24.8,07.5,05.1,0677.5,31.0
2021-08-12T23:24:00Z,00040200,00000000,0005.28,0004.26,0002.64,0001.10,0000.75,0000.49,0000.93,0000.64,0000.87,18.6,24.8,07.5,05.1,0677.5,31.0
2021-08-12T23:25:00Z,00040200,00000000,0005.57,0004.34,0003.01,0001.52,0000.65,0000.83,0001.12,0000.96,0000.56,18.5,24.8,07.6,05.2,0677.5,31.0
2021-08-12T23:26:00Z,00040200,00000000,0005.58,0004.15,0002.62,0000.78,0000.84,0000.45,0000.99,0000.64,0000.61,18.5,24.8,07.5,05.1,0677.5,31.0
2021-08-12T23:27:00Z,00040200,00000000,0005.42,0004.07,0002.79,0001.01,0000.51,0000.62,0000.95,0001.22,0001.29,18.5,24.8,07.5,05.1,0677.5,31.0
2021-08-12T23:28:00Z,00040200,00000000,0005.73,0003.62,0002.57,0000.91,0000.51,0000.59,0000.78,0000.71,0000.55,18.6,24.8,07.6,05.2,0677.5,31.0
2021-08-12T23:29:00Z,00040200,00000000,0005.82,0004.44,0003.00,0000.61,0000.86,0000.37,0000.90,0000.82,0000.69,18.6,24.8,07.6,05.2,0677.6,31.0
2021-08-12T23:30:00Z,00040200,00000000,0004.98,0004.43,0003.00,0000.90,0000.53,0000.81,0001.12,0000.87,0000.72,18.7,24.9,07.5,05.2,0677.5,31.0
2021-08-12T23:31:00Z,00040200,00000000,0005.30,0003.92,0002.69,0000.71,0000.55,0000.36,0000.89,0001.06,0000.69,18.7,24.9,07.5,05.2,0677.6,31.0
2021-08-12T23:32:00Z,00040200,00000000,0005.20,0004.35,0002.83,0000.52,0000.85,0000.33,0000.74,0001.01,0000.93,18.8,24.9,07.5,05.1,0677.5,31.0
2021-08-12T23:33:00Z,00040200,00000000,0005.72,0004.32,0002.85,0000.91,0000.82,0000.19,0000.91,0000.27,0000.19,18.7,24.9,07.5,05.2,0677.5,31.0
2021-08-12T23:34:00Z,00040200,00000000,0005.64,0004.01,0002.93,0000.81,0000.81,0000.53,0000.85,0000.87,0000.84,18.7,24.9,07.5,05.2,0677.6,31.0
2021-08-12T23:35:00Z,00040200,00000000,0006.20,0004.03,0003.15,0000.74,0000.79,0000.54,0000.95,0000.82,0000.56,18.7,24.9,07.5,05.1,0677.5,31.0
2021-08-12T23:36:00Z,00040200,00000000,0005.88,0004.58,0002.96,0001.25,0000.39,0000.44,0000.94,0001.03,0000.51,18.7,24.8,07.5,05.1,0677.5,31.0
2021-08-12T23:37:00Z,00040200,00000000,0006.11,0004.58,0003.47,0000.89,0000.53,0000.52,0000.90,0000.70,0000.90,18.6,24.8,07.4,05.1,0677.5,31.0
2021-08-12T23:38:00Z,00040200,00000000,0006.19,0005.35,0003.31,0001.20,0000.48,0000.43,0001.09,0001.25,0000.95,18.6,24.8,07.5,05.1,0677.5,31.0
2021-08-12T23:39:00Z,00040200,00000000,0005.64,0004.72,0003.43,0000.95,0000.74,0000.86,0000.80,0000.79,0000.62,18.5,24.8,07.4,05.1,0677.5,31.0
2021-08-12T23:40:00Z,00040200,00000000,0006.59,0004.61,0002.61,0000.78,0000.75,0000.37,0000.79,0000.73,0000.54,18.5,24.8,07.4,05.1,0677.6,31.0
2021-08-12T23:41:00Z,00040200,00000000,0006.84,0004.63,0003.38,0001.30,0000.83,0000.60,0001.10,0001.11,0000.98,18.5,24.8,07.5,05.1,0677.5,31.0
2021-08-12T23:42:00Z,00040200,00000000,0005.68,0004.42,0003.16,0000.86,0000.81,0000.42,0001.32,0001.16,0000.68,18.5,24.7,07.5,05.1,0677.5,31.0
2021-08-12T23:43:00Z,00040200,00000000,0005.99,0004.73,0002.84,0000.52,0000.50,0000.58,0000.88,0000.77,0000.63,18.5,24.7,07.4,05.1,0677.5,31.0
2021-08-12T23:44:00Z,00040200,00000000,0005.93,0004.19,0002.96,0000.68,0000.62,0000.46,0000.72,0000.61,0000.82,18.6,24.8,07.5,05.1,0677.5,31.0
2021-08-12T23:45:00Z,00040200,00000000,0005.91,0004.38,0003.06,0000.53,0000.49,0000.63,0001.28,0001.31,0001.20,18.7,24.8,07.5,05.1,0677.5,31.0
2021-08-12T23:46:00Z,00040200,00000000,0005.56,0004.38,0003.07,0000.52,0000.78,0000.48,0000.75,0000.79,0000.07,18.7,24.8,07.4,05.1,0677.6,31.0
2021-08-12T23:47:00Z,00040200,00000000,0006.34,0004.15,0003.25,0000.47,0000.47,0000.69,0001.19,0000.56,0000.82,18.7,24.8,07.4,05.1,0677.6,31.0
2021-08-12T23:48:00Z,00040200,00000000,0006.03,0004.60,0002.97,0000.86,0000.52,0000.60,0000.68,0000.87,0000.89,18.7,24.8,07.5,05.1,0677.6,31.0
2021-08-12T23:49:00Z,00040200,00000000,0006.06,0004.73,0003.03,0000.86,0000.62,0000.30,0000.82,0000.91,0000.60,18.6,24.8,07.4,05.1,0677.6,31.0
2021-08-12T23:50:00Z,00040200,00000000,0005.88,0004.21,0002.90,0000.68,0000.65,0000.07,0001.46,0001.13,0000.68,18.6,24.8,07.5,05.1,0677.6,31.0
2021-08-12T23:51:00Z,00040200,00000000,0005.94,0004.33,0002.76,0001.05,0000.60,0000.62,0000.77,0000.89,0000.86,18.5,24.8,07.5,05.1,0677.6,31.0
2021-08-12T23:52:00Z,00040200,00000000,0005.66,0004.06,0002.84,0001.07,0000.49,0000.78,0001.21,0001.01,0000.96,18.5,24.8,07.5,05.2,0677.6,31.0
2021-08-12T23:53:00Z,00040200,00000000,0005.32,0004.25,0002.67,0000.87,0000.70,0000.95,0000.61,0000.45,0000.69,18.5,24.7,07.6,05.2,0677.6,31.0
2021-08-12T23:54:00Z,00040200,00000000,0004.73,0003.79,0002.84,0000.71,0000.62,0000.35,0001.03,0001.20,0000.33,18.4,24.7,07.7,05.2,0677.5,31.0
2021-08-12T23:55:00Z,00040200,00000000,0003.88,0003.45,0002.79,0000.93,0000.38,0000.51,0000.82,0000.88,0000.87,18.4,24.7,07.7,05.2,0677.6,31.0
2021-08-12T23:56:00Z,00040200,00000000,0004.75,0003.81,0002.64,0000.74,0000.66,0000.32,0000.79,0000.67,0000.60,18.4,24.7,07.8,05.3,0677.7,31.0
2021-08-12T23:57:00Z,00040200,40000000,,,,,,,0000.71,0000.26,0000.34,18.4,24.7,07.9,05.4,0677.5,30.9
2021-08-12T23:58:00Z,00040200,60000000,,,,,,,-000.55,0000.02,-000.09,18.1,24.8,07.6,05.0,0676.6,30.9
2021-08-12T23:59:00Z,00040200,20000000,,,,,,,0000.24,-000.04,-000.05,18.2,24.9,07.5,05.0,0676.6,31.0
